Please be sure to check the latest weather conditions by clicking the link and viewing our local weather information!

Check Weather

Welcome to Lakeway Airpark (3R9)

FromTheAir

We’re a community airpark nestled within the town of Lakeway, Texas (17 miles northwest of downtown Austin).

Lakeway Airpark, Inc. was formed by Lakeway residents and interested parties to own and manage Lakeway Airpark (3R9).

The Airpark is a privately owned not for profit public use airport for residents and guests of Lakeway. No public funds are used and the airport is supported by fees and fuel sales at the airport.

Lakeway Airpark is an unmanned facility open for use from Sunrise to Sunset seven days a week. Takeoffs and landings are not permitted at night, between Sunset and Sunrise, by City Ordinance.

Quick Weather Info

Available data for KAUS from the past 2 hours
AUSTIN, TX
Metar
KAUS 242053Z 31009G24KT 10SM CLR 26/M01 A2981 RMK AO2 SLP087 T02561011 55005

20:53 UTC

Wind: 310° 9kt

Visibility: 10 SM

Sky:

Temp: 26 deg C / 78.8 deg F

Dewpoint: -1 deg C / 30.2 deg F

Pressure: 29.81 inHg

TAF
KAUS 241722Z 2418/2524 34012G22KT P6SM FEW250 FM242300 33010KT P6SM SKC FM250600 01010KT P6SM SKC